Location: Newark
(30.0333°N, 31.2167°E)
Time: 01:10:49
(UTC+00:00)

Tiros 1 despin weight - Pass Details

Date: 26 January 2020
Orbit: 594 x 642 km, 48.2° (Epoch: 19 February)

Event Time Altitude Azimuth Distance (km) Brightness Sun altitude
Rises 06:33:44 0° 195° (SSW) 2,818 ? 19.1°
Reaches altitude 10° 06:36:27 10° 179° (S) 1,925 ? 19.5°
Maximum altitude 06:39:46 21° 130° (SE) 1,362 ? 20.1°
Drops below altitude 10° 06:43:07 10° 81° (E) 1,951 ? 20.7°
Sets 06:45:53 0° 65° (ENE) 2,868 ? 21.1°
